マックホルツ第1彗星

96P/Machholz 1 (2007)

English version
Home page
Updated on September 20, 2007

---------------------------------------------------------------------

・ プロフィール

・ 写真集

・ 軌道要素

The following orbital elements are taken from MPC 51822: 

Epoch 2007 Apr. 10.0 TT = JDT 2454200.5
T 2007 Apr. 4.6194 TT                                   MPC
q   0.124618             (2000.0)            P               Q
n   0.1881482      Peri.   14.6181      -0.2027322      -0.4629182
a   3.016264       Node    94.5507      +0.7888859      -0.5992693
e   0.958684       Incl.   59.9553      +0.5801368      +0.6531333
P   5.24
From 133 observations 1986-2002, mean residual 0".8.  Nongravitational
     parameters A1 = +0.01, A2 = -0.0002.

・ 星図

・ 光度変化

        m1 = 12.7 + 5 logΔ + 12.0 log r

---------------------------------------------------------------------

軌道要素はMPCのEphemerides and Orbital Elementsに掲載されたものです。
星図は StellaNavigator Ver.2.0 for Windows (アストロアーツ 編著 / アスキー出版局刊) で作成したものです。
光度グラフはComet for Windowsで作成したものです。

---------------------------------------------------------------------

Copyright(C) Seiichi Yoshida (comet@aerith.net). All rights reserved.